Location: Ottawa
(45.4167°N, 75.7000°W)
Time: 17:38:21
(UTC-05:00)

OTV 5 (USA 277) - Pass Details

Date: 13 October 2017
Orbit: 404 x 417 km, 43.0° (Epoch: 07 September)

Event Time Altitude Azimuth Distance (km) Brightness Sun altitude
Rises 20:24:05 0° 260° (W) 2,353 ? -22.4°
Reaches altitude 10° 20:26:13 10° 256° (WSW) 1,490 ? -22.8°
Enters shadow 20:28:29 37° 236° (SW) 670 ? -23.2°
